QPF
0.00 0.00 0.00 0.00 0.00 0.00 0.00 0.00 0.00 0.00 0.00 0.00 0.00 0.00 0.00 0.00 0.00 0.00 0.00 0.00 0.01 0.01 0.01 0.01 0.01 0.02 0.03 0.02 0.02 0.02 0.02 0.04 0.04 0.02 0.02 0.02 0.02 0.02 0.03 0.03 0.03 0.04 0.06 0.06
0.00 0.00 0.00 0.00 0.00 0.00 0.00 0.00 0.00 0.00 0.00 0.00 0.00 0.00 0.00 0.00 0.00 0.00 0.00 0.00 0.00 0.00 0.00 0.00 0.01 0.01 0.03 0.03 0.03 0.02 0.03 0.05 0.04 0.03 0.03 0.02 0.02 0.03 0.04 0.04 0.03 0.05 0.04 0.05
0.00 0.00 0.00 0.00 0.00 0.00 0.00 0.00 0.00 0.00 0.00 0.00 0.00 0.00 0.00 0.00 0.01 0.00 0.00 0.00 0.00 0.00 0.00 0.00 0.01 0.01 0.01 0.03 0.04 0.04 0.05 0.05 0.05 0.04 0.03 0.02 0.03 0.06 0.07 0.06 0.05 0.06 0.05 0.05
0.00 0.00 0.00 0.00 0.00 0.00 0.00 0.00 0.00 0.00 0.00 0.00 0.00 0.00 0.00 0.00 0.01 0.00 0.00 0.00 0.00 0.00 0.00 0.00 0.00 0.01 0.01 0.03 0.05 0.05 0.05 0.05 0.05 0.03 0.03 0.03 0.05 0.07 0.08 0.07 0.06 0.06 0.05 0.05
0.00 0.00 0.00 0.00 0.00 0.00 0.00 0.00 0.00 0.00 0.00 0.00 0.00 0.00 0.00 0.00 0.00 0.00 0.00 0.00 0.00 0.00 0.00 0.00 0.00 0.00 0.02 0.03 0.03 0.04 0.05 0.05 0.05 0.03 0.03 0.05 0.05 0.04 0.05 0.05 0.06 0.06 0.07 0.08
0.00 0.00 0.00 0.00 0.00 0.00 0.00 0.00 0.00 0.00 0.00 0.00 0.00 0.00 0.00 0.00 0.00 0.00 0.00 0.00 0.01 0.01 0.01 0.02 0.03 0.03 0.02 0.03 0.02 0.03 0.04 0.04 0.04 0.04 0.04 0.06 0.06 0.03 0.05 0.05 0.06 0.08 0.08 0.07
0.00 0.00 0.00 0.00 0.00 0.00 0.00 0.00 0.00 0.00 0.00 0.00 0.00 0.00 0.00 0.00 0.00 0.00 0.01 0.01 0.02 0.03 0.06 0.06 0.04 0.03 0.02 0.01 0.02 0.02 0.03 0.04 0.05 0.05 0.06 0.09 0.07 0.05 0.05 0.04 0.08 0.07 0.07 0.06
0.00 0.00 0.00 0.00 0.00 0.00 0.00 0.00 0.00 0.00 0.00 0.00 0.00 0.00 0.00 0.00 0.00 0.00 0.00 0.00 0.01 0.01 0.01 0.01 0.02 0.01 0.01 0.01 0.01 0.01 0.01 0.03 0.05 0.05 0.07 0.10 0.07 0.04 0.04 0.03 0.05 0.05 0.05 0.05
0.00 0.00 0.00 0.00 0.00 0.00 0.00 0.00 0.00 0.00 0.00 0.00 0.00 0.00 0.00 0.00 0.00 0.00 0.00 0.00 0.00 0.00 0.00 0.01 0.01 0.01 0.00 0.00 0.00 0.00 0.00 0.01 0.02 0.04 0.06 0.07 0.05 0.02 0.02 0.02 0.02 0.02 0.02 0.02
0.00 0.00 0.00 0.00 0.00 0.00 0.00 0.00 0.00 0.00 0.00 0.00 0.00 0.00 0.00 0.00 0.00 0.00 0.00 0.00 0.00 0.00 0.00 0.00 0.01 0.01 0.01 0.00 0.01 0.00 0.00 0.00 0.01 0.02 0.03 0.03 0.02 0.01 0.01 0.01 0.01 0.01 0.00 0.01
0.00 0.00 0.00 0.00 0.00 0.00 0.00 0.00 0.00 0.00 0.00 0.00 0.00 0.00 0.00 0.00 0.00 0.00 0.00 0.00 0.00 0.00 0.00 0.01 0.01 0.01 0.01 0.01 0.00 0.00 0.00 0.00 0.00 0.00 0.01 0.00 0.00 0.00 0.00 0.00 0.00 0.00 0.00 0.00
0.00 0.00 0.00 0.00 0.00 0.00 0.00 0.00 0.00 0.00 0.00 0.00 0.00 0.00 0.00 0.00 0.00 0.00 0.00 0.00 0.00 0.00 0.01 0.01 0.02 0.01 0.01 0.01 0.01 0.01 0.01 0.02 0.01 0.01 0.00 0.00 0.00 0.00 0.00 0.00 0.00 0.00 0.00 0.00
0.00 0.00 0.00 0.00 0.00 0.00 0.00 0.00 0.00 0.00 0.00 0.00 0.00 0.00 0.00 0.00 0.00 0.00 0.00 0.00 0.00 0.00 0.01 0.01 0.01 0.01 0.01 0.01 0.01 0.01 0.01 0.02 0.01 0.01 0.01 0.00 0.00 0.00 0.00 0.00 0.00 0.00 0.01 0.01
0.00 0.00 0.00 0.00 0.00 0.00 0.00 0.00 0.00 0.00 0.00 0.00 0.00 0.00 0.00 0.00 0.00 0.00 0.00 0.00 0.00 0.00 0.00 0.00 0.00 0.01 0.01 0.01 0.00 0.01 0.01 0.01 0.01 0.01 0.01 0.01 0.00 0.00 0.00 0.00 0.00 0.01 0.01 0.01
0.00 0.00 0.00 0.00 0.00 0.00 0.00 0.00 0.00 0.00 0.00 0.00 0.00 0.00 0.00 0.00 0.00 0.00 0.00 0.01 0.01 0.00 0.00 0.00 0.00 0.00 0.01 0.01 0.00 0.01 0.01 0.00 0.00 0.01 0.01 0.01 0.01 0.01 0.01 0.01 0.01 0.01 0.01 0.01
0.00 0.00 0.00 0.00 0.00 0.00 0.00 0.00 0.00 0.00 0.00 0.00 0.00 0.00 0.00 0.00 0.00 0.00 0.00 0.00 0.01 0.01 0.00 0.00 0.00 0.00 0.01 0.01 0.01 0.01 0.01 0.01 0.01 0.02 0.02 0.03 0.03 0.02 0.02 0.02 0.02 0.02 0.02 0.02
0.00 0.00 0.00 0.00 0.00 0.00 0.00 0.00 0.00 0.00 0.00 0.00 0.00 0.00 0.00 0.00 0.00 0.00 0.00 0.00 0.00 0.01 0.01 0.00 0.00 0.00 0.00 0.01 0.01 0.02 0.02 0.03 0.04 0.06 0.07 0.08 0.06 0.05 0.05 0.04 0.03 0.03 0.03 0.03
0.00 0.00 0.00 0.00 0.00 0.00 0.00 0.00 0.00 0.00 0.00 0.00 0.00 0.00 0.00 0.00 0.00 0.00 0.00 0.01 0.01 0.01 0.01 0.01 0.01 0.01 0.01 0.01 0.03 0.04 0.05 0.05 0.06 0.08 0.13 0.14 0.11 0.09 0.08 0.07 0.07 0.07 0.06 0.03
0.00 0.00 0.00 0.00 0.00 0.00 0.00 0.00 0.00 0.00 0.00 0.00 0.01 0.01 0.01 0.01 0.00 0.01 0.01 0.01 0.01 0.01 0.02 0.02 0.02 0.01 0.01 0.02 0.03 0.04 0.04 0.04 0.05 0.07 0.10 0.13 0.12 0.09 0.08 0.07 0.08 0.08 0.04 0.02
0.00 0.00 0.00 0.00 0.00 0.00 0.00 0.00 0.00 0.00 0.00 0.00 0.00 0.01 0.01 0.02 0.01 0.01 0.00 0.00 0.01 0.01 0.01 0.01 0.01 0.01 0.02 0.03 0.03 0.04 0.04 0.05 0.05 0.07 0.08 0.08 0.10 0.11 0.10 0.08 0.07 0.06 0.03 0.02
0.00 0.00 0.00 0.00 0.00 0.00 0.00 0.00 0.01 0.01 0.00 0.00 0.00 0.00 0.01 0.01 0.00 0.00 0.00 0.00 0.00 0.00 0.01 0.01 0.00 0.01 0.01 0.03 0.09 0.11 0.07 0.05 0.05 0.07 0.09 0.12 0.12 0.13 0.14 0.11 0.08 0.06 0.04 0.02
0.00 0.00 0.00 0.00 0.00 0.00 0.00 0.00 0.00 0.00 0.00 0.00 0.00 0.00 0.01 0.01 0.01 0.01 0.01 0.01 0.01 0.01 0.01 0.01 0.00 0.00 0.01 0.02 0.04 0.07 0.07 0.05 0.05 0.05 0.07 0.10 0.12 0.13 0.12 0.09 0.07 0.06 0.04 0.03
0.00 0.00 0.00 0.00 0.00 0.00 0.00 0.00 0.00 0.01 0.01 0.01 0.01 0.01 0.01 0.01 0.01 0.01 0.01 0.01 0.02 0.02 0.02 0.01 0.01 0.01 0.01 0.01 0.01 0.02 0.02 0.03 0.03 0.03 0.04 0.06 0.06 0.07 0.08 0.07 0.06 0.05 0.05 0.05
0.00 0.00 0.00 0.00 0.00 0.00 0.00 0.00 0.00 0.00 0.00 0.01 0.02 0.03 0.03 0.02 0.01 0.02 0.01 0.01 0.01 0.02 0.02 0.02 0.01 0.01 0.01 0.01 0.01 0.01 0.01 0.01 0.02 0.02 0.02 0.04 0.05 0.07 0.07 0.06 0.05 0.06 0.07 0.07
0.00 0.00 0.00 0.01 0.01 0.01 0.01 0.00 0.00 0.00 0.00 0.01 0.02 0.03 0.04 0.03 0.02 0.02 0.02 0.02 0.02 0.02 0.03 0.02 0.01 0.01 0.01 0.01 0.01 0.00 0.01 0.01 0.01 0.01 0.01 0.03 0.04 0.06 0.06 0.05 0.05 0.06 0.06 0.07
0.01 0.01 0.01 0.01 0.01 0.01 0.01 0.00 0.00 0.00 0.00 0.01 0.02 0.02 0.02 0.03 0.03 0.02 0.02 0.03 0.03 0.03 0.03 0.02 0.02 0.01 0.01 0.01 0.00 0.00 0.00 0.01 0.01 0.02 0.02 0.04 0.05 0.06 0.06 0.07 0.06 0.07 0.07 0.07
MSLP
1006.89 1007.68 1008.45 1009.17 1009.86 1010.55 1011.23 1011.92 1012.58 1013.17 1013.64 1013.95 1014.08 1014.03 1013.84 1013.56 1013.28 1013.04 1012.90 1012.85 1012.88 1012.96 1013.03 1013.07 1013.04 1012.97 1012.86 1012.78 1012.74 1012.80 1012.96 1013.20 1013.48 1013.77 1014.01 1014.17 1014.23 1014.20 1014.12 1014.03 1013.98 1013.99 1014.08 1014.24
1007.46 1008.12 1008.73 1009.32 1009.91 1010.54 1011.24 1011.99 1012.75 1013.46 1014.03 1014.40 1014.55 1014.47 1014.21 1013.84 1013.45 1013.11 1012.89 1012.80 1012.83 1012.93 1013.05 1013.12 1013.13 1013.07 1012.97 1012.86 1012.82 1012.86 1013.03 1013.30 1013.63 1013.97 1014.27 1014.46 1014.53 1014.49 1014.37 1014.21 1014.08 1014.01 1014.04 1014.18
1007.85 1008.36 1008.83 1009.28 1009.80 1010.43 1011.18 1012.03 1012.92 1013.75 1014.41 1014.84 1014.98 1014.84 1014.47 1013.96 1013.43 1012.97 1012.66 1012.52 1012.54 1012.68 1012.85 1012.99 1013.06 1013.04 1012.97 1012.87 1012.82 1012.86 1013.03 1013.32 1013.70 1014.09 1014.43 1014.67 1014.77 1014.73 1014.58 1014.37 1014.17 1014.03 1014.01 1014.11
1008.04 1008.41 1008.74 1009.12 1009.62 1010.29 1011.14 1012.13 1013.16 1014.12 1014.88 1015.33 1015.42 1015.17 1014.64 1013.94 1013.22 1012.60 1012.17 1011.97 1011.98 1012.16 1012.40 1012.63 1012.79 1012.84 1012.81 1012.74 1012.69 1012.74 1012.91 1013.22 1013.62 1014.06 1014.46 1014.75 1014.90 1014.88 1014.73 1014.50 1014.26 1014.08 1014.00 1014.05
1008.04 1008.28 1008.53 1008.88 1009.41 1010.18 1011.17 1012.33 1013.53 1014.61 1015.43 1015.87 1015.88 1015.47 1014.73 1013.80 1012.85 1012.04 1011.46 1011.18 1011.18 1011.39 1011.72 1012.05 1012.31 1012.45 1012.48 1012.45 1012.42 1012.47 1012.64 1012.95 1013.38 1013.85 1014.31 1014.67 1014.89 1014.92 1014.81 1014.59 1014.34 1014.13 1014.01 1014.02
1007.88 1008.03 1008.23 1008.59 1009.21 1010.11 1011.28 1012.61 1013.97 1015.16 1016.02 1016.41 1016.30 1015.71 1014.73 1013.55 1012.36 1011.34 1010.61 1010.24 1010.21 1010.46 1010.86 1011.30 1011.67 1011.91 1012.01 1012.03 1012.02 1012.07 1012.23 1012.54 1012.98 1013.49 1014.00 1014.43 1014.72 1014.84 1014.79 1014.61 1014.39 1014.17 1014.03 1014.00
1007.61 1007.68 1007.87 1008.29 1009.01 1010.07 1011.41 1012.91 1014.40 1015.66 1016.53 1016.87 1016.62 1015.83 1014.63 1013.21 1011.78 1010.56 1009.69 1009.23 1009.18 1009.46 1009.94 1010.47 1010.94 1011.28 1011.46 1011.52 1011.53 1011.58 1011.73 1012.03 1012.46 1012.99 1013.54 1014.04 1014.41 1014.62 1014.65 1014.55 1014.37 1014.18 1014.03 1013.98
1007.29 1007.30 1007.50 1007.98 1008.81 1010.00 1011.48 1013.11 1014.69 1016.00 1016.84 1017.10 1016.72 1015.77 1014.37 1012.75 1011.15 1009.78 1008.79 1008.27 1008.20 1008.50 1009.04 1009.65 1010.21 1010.62 1010.87 1010.97 1011.01 1011.05 1011.18 1011.46 1011.88 1012.41 1012.99 1013.54 1013.98 1014.27 1014.39 1014.37 1014.26 1014.10 1013.98 1013.92
1006.96 1006.94 1007.15 1007.68 1008.59 1009.87 1011.43 1013.12 1014.73 1016.03 1016.83 1017.00 1016.52 1015.43 1013.92 1012.18 1010.47 1009.02 1007.97 1007.42 1007.34 1007.66 1008.24 1008.91 1009.53 1010.01 1010.30 1010.44 1010.49 1010.53 1010.64 1010.89 1011.29 1011.80 1012.39 1012.97 1013.46 1013.82 1014.02 1014.08 1014.03 1013.93 1013.84 1013.80
1006.68 1006.64 1006.86 1007.41 1008.35 1009.65 1011.22 1012.88 1014.44 1015.67 1016.39 1016.48 1015.93 1014.80 1013.24 1011.48 1009.76 1008.31 1007.27 1006.72 1006.66 1006.99 1007.59 1008.28 1008.93 1009.44 1009.77 1009.93 1009.99 1010.03 1010.13 1010.35 1010.72 1011.21 1011.78 1012.36 1012.88 1013.28 1013.54 1013.67 1013.69 1013.65 1013.61 1013.61
1006.51 1006.46 1006.67 1007.22 1008.12 1009.36 1010.83 1012.38 1013.80 1014.90 1015.52 1015.54 1014.96 1013.84 1012.34 1010.65 1009.03 1007.65 1006.68 1006.18 1006.14 1006.47 1007.05 1007.74 1008.38 1008.90 1009.24 1009.42 1009.49 1009.54 1009.64 1009.85 1010.19 1010.65 1011.20 1011.76 1012.27 1012.69 1012.98 1013.16 1013.25 1013.28 1013.31 1013.37
1006.47 1006.44 1006.64 1007.14 1007.95 1009.04 1010.33 1011.67 1012.89 1013.81 1014.29 1014.24 1013.67 1012.62 1011.25 1009.73 1008.27 1007.05 1006.19 1005.76 1005.73 1006.05 1006.60 1007.23 1007.84 1008.33 1008.67 1008.86 1008.96 1009.04 1009.15 1009.36 1009.69 1010.12 1010.63 1011.16 1011.65 1012.07 1012.39 1012.60 1012.74 1012.85 1012.95 1013.09
1006.58 1006.58 1006.77 1007.19 1007.86 1008.76 1009.79 1010.86 1011.81 1012.50 1012.83 1012.72 1012.17 1011.24 1010.05 1008.74 1007.51 1006.48 1005.76 1005.40 1005.40 1005.68 1006.15 1006.71 1007.24 1007.68 1008.01 1008.22 1008.35 1008.47 1008.63 1008.86 1009.19 1009.61 1010.09 1010.59 1011.05 1011.45 1011.78 1012.03 1012.22 1012.40 1012.59 1012.82
1006.83 1006.87 1007.04 1007.38 1007.89 1008.54 1009.28 1010.03 1010.67 1011.11 1011.27 1011.09 1010.59 1009.79 1008.81 1007.75 1006.76 1005.93 1005.36 1005.07 1005.06 1005.28 1005.66 1006.10 1006.54 1006.92 1007.22 1007.45 1007.64 1007.82 1008.03 1008.32 1008.68 1009.10 1009.57 1010.03 1010.47 1010.86 1011.19 1011.47 1011.72 1011.97 1012.25 1012.57
1007.17 1007.27 1007.43 1007.67 1008.00 1008.39 1008.83 1009.24 1009.57 1009.75 1009.73 1009.49 1009.03 1008.37 1007.60 1006.78 1006.03 1005.40 1004.96 1004.72 1004.69 1004.83 1005.08 1005.40 1005.73 1006.04 1006.32 1006.57 1006.82 1007.08 1007.38 1007.74 1008.15 1008.59 1009.05 1009.51 1009.93 1010.31 1010.65 1010.96 1011.27 1011.59 1011.96 1012.36
1007.56 1007.71 1007.85 1007.99 1008.14 1008.28 1008.41 1008.50 1008.53 1008.46 1008.28 1007.97 1007.55 1007.03 1006.45 1005.86 1005.32 1004.86 1004.53 1004.33 1004.26 1004.30 1004.43 1004.62 1004.85 1005.09 1005.35 1005.63 1005.94 1006.29 1006.69 1007.13 1007.60 1008.08 1008.56 1009.01 1009.43 1009.82 1010.18 1010.53 1010.89 1011.28 1011.72 1012.20
1007.92 1008.09 1008.20 1008.24 1008.21 1008.12 1007.97 1007.77 1007.53 1007.24 1006.92 1006.57 1006.18 1005.78 1005.36 1004.97 1004.61 1004.30 1004.06 1003.88 1003.77 1003.72 1003.73 1003.81 1003.94 1004.12 1004.38 1004.69 1005.07 1005.51 1006.01 1006.53 1007.07 1007.60 1008.10 1008.57 1009.00 1009.40 1009.78 1010.17 1010.59 1011.04 1011.53 1012.07
1008.18 1008.34 1008.40 1008.32 1008.13 1007.82 1007.43 1006.99 1006.52 1006.06 1005.62 1005.23 1004.88 1004.58 1004.32 1004.09 1003.89 1003.70 1003.53 1003.36 1003.22 1003.10 1003.03 1003.02 1003.08 1003.23 1003.49 1003.84 1004.29 1004.82 1005.40 1006.00 1006.61 1007.18 1007.71 1008.20 1008.64 1009.05 1009.47 1009.89 1010.35 1010.85 1011.40 1011.97
1008.30 1008.40 1008.36 1008.16 1007.81 1007.31 1006.72 1006.08 1005.43 1004.84 1004.32 1003.91 1003.60 1003.40 1003.26 1003.17 1003.10 1003.03 1002.92 1002.79 1002.65 1002.49 1002.38 1002.32 1002.35 1002.49 1002.77 1003.17 1003.68 1004.28 1004.93 1005.59 1006.24 1006.85 1007.40 1007.90 1008.35 1008.79 1009.22 1009.68 1010.18 1010.72 1011.29 1011.88
1008.27 1008.26 1008.09 1007.74 1007.23 1006.57 1005.81 1005.01 1004.23 1003.54 1002.98 1002.57 1002.31 1002.18 1002.16 1002.20 1002.25 1002.28 1002.26 1002.18 1002.06 1001.92 1001.80 1001.75 1001.79 1001.96 1002.26 1002.71 1003.27 1003.92 1004.62 1005.33 1006.00 1006.62 1007.18 1007.69 1008.15 1008.60 1009.05 1009.54 1010.06 1010.62 1011.21 1011.79
1008.08 1007.92 1007.60 1007.10 1006.42 1005.61 1004.72 1003.80 1002.94 1002.19 1001.60 1001.20 1000.99 1000.94 1001.02 1001.16 1001.33 1001.46 1001.54 1001.54 1001.49 1001.41 1001.34 1001.33 1001.42 1001.63 1001.99 1002.48 1003.09 1003.77 1004.49 1005.21 1005.89 1006.51 1007.06 1007.56 1008.02 1008.47 1008.94 1009.44 1009.98 1010.55 1011.14 1011.72
1007.76 1007.44 1006.95 1006.30 1005.48 1004.54 1003.54 1002.54 1001.61 1000.83 1000.24 999.86 999.69 999.71 999.87 1000.12 1000.39 1000.63 1000.81 1000.92 1000.97 1000.98 1001.01 1001.08 1001.24 1001.52 1001.93 1002.47 1003.10 1003.80 1004.53 1005.23 1005.90 1006.49 1007.03 1007.51 1007.96 1008.41 1008.88 1009.38 1009.92 1010.50 1011.08 1011.65
1007.36 1006.88 1006.24 1005.44 1004.51 1003.47 1002.38 1001.33 1000.37 999.58 998.99 998.63 998.50 998.57 998.80 999.12 999.49 999.83 1000.13 1000.36 1000.53 1000.66 1000.79 1000.97 1001.22 1001.58 1002.05 1002.62 1003.27 1003.97 1004.68 1005.36 1005.99 1006.56 1007.06 1007.52 1007.95 1008.39 1008.85 1009.35 1009.89 1010.46 1011.03 1011.58
1006.91 1006.30 1005.54 1004.64 1003.61 1002.51 1001.38 1000.30 999.33 998.53 997.96 997.62 997.52 997.63 997.90 998.29 998.73 999.16 999.57 999.91 1000.21 1000.47 1000.72 1001.01 1001.35 1001.78 1002.30 1002.90 1003.56 1004.24 1004.92 1005.57 1006.16 1006.68 1007.15 1007.58 1007.99 1008.41 1008.86 1009.35 1009.87 1010.42 1010.98 1011.51
1006.45 1005.75 1004.91 1003.95 1002.88 1001.76 1000.62 999.55 998.59 997.82 997.26 996.94 996.85 996.98 997.28 997.71 998.20 998.71 999.20 999.64 1000.05 1000.42 1000.79 1001.18 1001.60 1002.09 1002.65 1003.26 1003.91 1004.57 1005.21 1005.81 1006.36 1006.84 1007.28 1007.68 1008.07 1008.47 1008.90 1009.36 1009.87 1010.39 1010.92 1011.43
1005.97 1005.23 1004.38 1003.41 1002.36 1001.27 1000.17 999.14 998.23 997.49 996.96 996.65 996.58 996.71 997.02 997.47 997.98 998.54 999.09 999.61 1000.10 1000.57 1001.02 1001.48 1001.97 1002.49 1003.06 1003.67 1004.29 1004.91 1005.51 1006.07 1006.58 1007.03 1007.44 1007.82 1008.19 1008.57 1008.97 1009.41 1009.88 1010.36 1010.86 1011.34
Thickness
5823 5807 5795 5801 5808 5807 5800 5791 5787 5794 5807 5798 5790 5790 5794 5798 5796 5793 5791 5791 5790 5790 5794 5794 5794 5793 5790 5787 5784 5782 5779 5777 5775 5771 5768 5766 5764 5764 5763 5763 5761 5760 5759 5758
5804 5799 5812 5817 5814 5809 5802 5791 5790 5798 5807 5800 5790 5790 5798 5800 5800 5800 5796 5795 5794 5793 5793 5794 5794 5793 5791 5788 5786 5784 5781 5779 5777 5774 5771 5769 5767 5765 5764 5763 5761 5760 5759 5757
5800 5808 5820 5814 5807 5801 5798 5793 5794 5794 5800 5799 5792 5784 5792 5801 5805 5805 5804 5802 5801 5799 5796 5795 5795 5793 5792 5790 5788 5787 5784 5782 5779 5776 5773 5770 5767 5765 5763 5762 5761 5760 5758 5757
5803 5813 5814 5809 5805 5803 5790 5807 5805 5798 5783 5772 5783 5761 5784 5793 5798 5803 5805 5805 5806 5806 5803 5800 5797 5794 5794 5793 5792 5788 5785 5783 5780 5777 5774 5769 5765 5761 5761 5761 5760 5760 5759 5757
5799 5809 5808 5804 5809 5810 5804 5811 5804 5795 5780 5769 5774 5764 5775 5790 5791 5800 5808 5811 5811 5810 5808 5805 5802 5799 5798 5796 5793 5790 5787 5783 5781 5778 5775 5771 5767 5764 5763 5761 5760 5759 5758 5757
5804 5816 5816 5815 5819 5818 5811 5799 5788 5776 5767 5752 5768 5763 5769 5783 5796 5805 5813 5816 5815 5813 5812 5809 5806 5802 5799 5797 5794 5791 5786 5783 5782 5779 5776 5773 5769 5766 5762 5760 5759 5758 5757 5756
5789 5802 5814 5820 5806 5806 5801 5775 5750 5746 5737 5744 5768 5765 5774 5803 5812 5815 5817 5819 5820 5818 5813 5809 5805 5801 5798 5796 5794 5791 5787 5783 5781 5779 5776 5774 5771 5767 5764 5761 5759 5757 5755 5754
5767 5770 5800 5811 5805 5794 5789 5779 5750 5736 5734 5744 5762 5762 5788 5815 5821 5824 5824 5824 5823 5819 5816 5812 5809 5805 5801 5799 5796 5792 5788 5784 5782 5779 5776 5774 5772 5768 5765 5762 5759 5757 5755 5755
5761 5768 5801 5811 5813 5803 5784 5774 5777 5751 5746 5743 5750 5768 5794 5815 5816 5819 5820 5821 5820 5819 5818 5815 5812 5808 5805 5801 5798 5795 5790 5785 5782 5780 5777 5774 5771 5768 5765 5763 5760 5758 5756 5755
5774 5768 5788 5801 5806 5799 5794 5776 5759 5746 5732 5732 5749 5759 5772 5797 5805 5811 5814 5816 5818 5819 5818 5816 5814 5811 5807 5803 5800 5796 5792 5788 5784 5781 5778 5775 5771 5768 5766 5763 5759 5757 5755 5753
5775 5762 5771 5783 5782 5779 5778 5769 5755 5742 5745 5731 5732 5755 5798 5802 5809 5810 5814 5817 5817 5817 5817 5816 5814 5812 5808 5804 5800 5795 5792 5788 5784 5781 5778 5775 5771 5769 5766 5762 5759 5757 5754 5752
5762 5750 5747 5765 5785 5792 5787 5774 5760 5750 5740 5736 5737 5758 5810 5811 5812 5813 5814 5817 5819 5818 5818 5816 5814 5810 5807 5803 5799 5796 5793 5788 5785 5782 5778 5774 5771 5768 5765 5762 5759 5756 5753 5751
5757 5741 5731 5741 5756 5772 5772 5769 5764 5753 5738 5729 5735 5762 5806 5808 5809 5812 5814 5815 5816 5816 5815 5813 5810 5808 5805 5803 5800 5795 5792 5789 5785 5781 5777 5773 5770 5767 5764 5761 5758 5755 5752 5749
5758 5734 5730 5729 5740 5755 5760 5763 5761 5755 5739 5735 5746 5766 5789 5797 5801 5806 5809 5811 5811 5812 5811 5809 5806 5805 5804 5802 5799 5796 5792 5789 5785 5780 5776 5772 5769 5767 5764 5761 5757 5754 5750 5747
5746 5731 5736 5742 5753 5758 5761 5761 5760 5760 5755 5749 5759 5765 5782 5792 5798 5803 5806 5806 5806 5806 5806 5805 5803 5802 5801 5798 5796 5794 5790 5786 5783 5778 5775 5772 5769 5766 5762 5759 5756 5753 5749 5746
5729 5725 5730 5734 5745 5750 5752 5757 5759 5762 5760 5760 5765 5769 5789 5793 5797 5798 5799 5800 5800 5800 5801 5802 5801 5800 5798 5796 5793 5791 5788 5784 5781 5777 5773 5770 5767 5763 5760 5757 5754 5750 5747 5744
5713 5715 5710 5712 5729 5738 5731 5749 5754 5757 5761 5762 5759 5772 5786 5786 5789 5792 5794 5796 5797 5798 5798 5798 5798 5797 5796 5794 5792 5789 5786 5783 5779 5776 5772 5768 5764 5761 5758 5756 5751 5747 5744 5740
5708 5701 5694 5697 5711 5703 5731 5756 5760 5758 5761 5765 5770 5776 5780 5784 5789 5792 5795 5794 5794 5795 5795 5795 5795 5794 5793 5791 5789 5786 5783 5780 5777 5773 5769 5766 5763 5759 5755 5751 5748 5744 5741 5738
5706 5699 5685 5682 5689 5705 5731 5748 5752 5749 5751 5764 5766 5771 5775 5780 5782 5784 5791 5792 5793 5794 5794 5794 5794 5792 5789 5786 5784 5781 5778 5775 5772 5769 5766 5764 5761 5757 5753 5748 5745 5742 5738 5735
5695 5694 5684 5678 5684 5688 5721 5748 5756 5749 5738 5760 5762 5763 5765 5769 5761 5771 5786 5787 5788 5789 5789 5789 5789 5787 5784 5781 5779 5775 5772 5769 5767 5765 5763 5761 5758 5754 5750 5747 5743 5739 5736 5733
5680 5677 5675 5674 5681 5696 5727 5742 5746 5723 5731 5755 5757 5758 5758 5759 5764 5774 5780 5781 5783 5784 5784 5783 5781 5779 5778 5776 5773 5769 5767 5764 5763 5761 5758 5757 5754 5751 5748 5743 5740 5736 5733 5729
5671 5668 5666 5667 5674 5691 5727 5731 5726 5728 5744 5749 5751 5753 5754 5757 5762 5767 5770 5773 5776 5775 5776 5776 5774 5772 5771 5770 5767 5764 5762 5761 5759 5756 5754 5752 5750 5747 5744 5739 5735 5732 5729 5724
5667 5673 5673 5679 5689 5708 5718 5724 5730 5733 5735 5740 5743 5747 5750 5751 5753 5757 5760 5764 5767 5768 5768 5768 5767 5766 5765 5763 5761 5758 5758 5756 5753 5751 5748 5746 5744 5741 5738 5734 5731 5727 5724 5720
5667 5671 5671 5677 5692 5703 5711 5718 5723 5728 5731 5736 5740 5742 5744 5744 5747 5749 5751 5754 5756 5759 5760 5760 5758 5758 5757 5757 5756 5754 5753 5750 5747 5744 5741 5739 5736 5734 5732 5729 5727 5724 5720 5717
5661 5664 5665 5671 5685 5694 5704 5709 5715 5720 5725 5729 5733 5736 5737 5739 5739 5741 5742 5744 5747 5749 5750 5750 5750 5751 5751 5750 5748 5748 5746 5743 5740 5737 5734 5732 5729 5727 5725 5723 5722 5720 5718 5716
5654 5657 5660 5666 5678 5680 5690 5701 5707 5710 5714 5719 5723 5725 5729 5730 5730 5732 5733 5735 5737 5739 5740 5740 5741 5742 5742 5742 5741 5740 5739 5737 5733 5729 5727 5725 5722 5721 5719 5716 5714 5713 5712 5709